EW4696 Weather Reports


Display with metric or nautical units.
time (UTC)temp
F
wind
direction
speed
MPH
gust
MPH
rain 1hr
in
rain 24hr
in
rain mn
in
humidity
%
barometer
mb
20260504050503 66 179 1.0 6.0 0.00 0.00 0.00 70 1017.8
20260504050004 66 159 1.0 6.0 0.00 0.00 0.00 69 1017.7
20260504045503 66 172 1.0 4.0 0.00 0.00 0.00 69 1017.7
20260504044503 66 201 1.0 7.0 0.00 0.00 0.00 68 1017.9
20260504044004 67 200 2.0 7.0 0.00 0.00 0.00 67 1017.9
20260504043503 67 196 1.0 6.0 0.00 0.00 0.00 67 1018.0
20260504043003 67 190 1.0 5.0 0.00 0.00 0.00 67 1018.0
20260504042505 66 189 1.0 5.0 0.00 0.00 0.00 66 1018.0
20260504041504 66 0 0.0 3.0 0.00 0.00 0.00 65 1018.1
20260504041005 66 0 0.0 3.0 0.00 0.00 0.00 66 1018.1
20260504040504 65 0 0.0 2.0 0.00 0.00 0.00 66 1018.1
20260504040004 65 0 0.0 2.0 0.00 0.00 0.00 66 1018.2
20260504035505 65 0 0.0 2.0 0.00 0.00 0.00 66 1018.1
20260504035005 65 0 0.0 1.0 0.00 0.00 0.00 65 1018.1
20260504034504 65 0 0.0 0.0 0.00 0.00 0.00 64 1018.0
20260504034004 65 0 0.0 0.0 0.00 0.00 0.00 63 1018.1
20260504033505 66 0 0.0 0.0 0.00 0.00 0.00 62 1018.0
20260504033005 66 0 0.0 0.0 0.00 0.00 0.00 61 1018.0
20260504032504 66 0 0.0 0.0 0.00 0.00 0.00 59 1017.9
20260504031505 67 0 0.0 0.0 0.00 0.00 0.00 59 1018.0
20260504031005 67 0 0.0 0.0 0.00 0.00 0.00 58 1018.1
20260504030504 67 0 0.0 0.0 0.00 0.00 0.00 57 1018.1
20260504030005 68 0 0.0 1.0 0.00 0.00 0.00 57 1018.1
20260504025505 68 0 0.0 1.0 0.00 0.00 0.00 57 1018.0
20260504025005 68 0 0.0 1.0 0.00 0.00 0.00 57 1018.0
20260504024504 68 0 0.0 1.0 0.00 0.00 0.00 58 1018.1
20260504024005 68 0 0.0 2.0 0.00 0.00 0.00 58 1018.2
20260504023505 68 0 0.0 2.0 0.00 0.00 0.00 58 1018.0
20260504023004 68 0 0.0 0.0 0.00 0.00 0.00 58 1017.8
20260504022505 68 0 0.0 0.0 0.00 0.00 0.00 58 1017.9
20260504021504 68 0 0.0 1.0 0.00 0.00 0.00 57 1018.0
20260504021004 69 0 0.0 1.0 0.00 0.00 0.00 56 1018.0
20260504020505 69 0 0.0 0.0 0.00 0.00 0.00 55 1017.9
20260504020005 69 0 0.0 0.0 0.00 0.00 0.00 54 1017.8
20260504015504 69 0 0.0 1.0 0.00 0.00 0.00 54 1017.7
20260504015004 70 0 0.0 1.0 0.00 0.00 0.00 53 1017.4
20260504014505 70 0 0.0 1.0 0.00 0.00 0.00 53 1017.4
20260504014005 70 0 0.0 1.0 0.00 0.00 0.00 52 1017.3
20260504013504 70 0 0.0 0.0 0.00 0.00 0.00 52 1017.3
20260504013004 71 0 0.0 0.0 0.00 0.00 0.00 51 1017.4
20260504012505 71 0 0.0 1.0 0.00 0.00 0.00 51 1017.4
20260504012004 71 0 0.0 1.0 0.00 0.00 0.00 50 1017.4
20260504011504 71 0 0.0 2.0 0.00 0.00 0.00 50 1017.4
20260504011004 72 0 0.0 2.0 0.00 0.00 0.00 50 1017.4
20260504010505 72 0 0.0 1.0 0.00 0.00 0.00 49 1017.4
20260504010004 72 0 0.0 3.0 0.00 0.00 0.00 49 1017.4
20260504005504 72 0 0.0 3.0 0.00 0.00 0.00 48 1017.3
20260504005005 73 0 0.0 3.0 0.00 0.00 0.00 48 1017.3
20260504004505 73 187 1.0 3.0 0.00 0.00 0.00 47 1017.3
20260504004004 73 0 0.0 4.0 0.00 0.00 0.00 47 1017.3
20260504003005 74 0 0.0 3.0 0.00 0.00 0.00 46 1017.5
20260504002505 74 0 0.0 2.0 0.00 0.00 0.00 46 1017.4
20260504002004 74 0 0.0 2.0 0.00 0.00 0.00 47 1017.5
20260504001504 74 0 0.0 2.0 0.00 0.00 0.00 47 1017.6
20260504001005 74 0 0.0 6.0 0.00 0.00 0.00 45 1017.7
20260504000505 74 0 0.0 6.0 0.00 0.00 0.00 45 1017.8
20260504000004 74 0 0.0 2.0 0.00 0.00 0.00 46 1017.8
20260503235504 75 0 0.0 3.0 0.00 0.00 0.00 45 1018.0
20260503234505 75 175 1.0 5.0 0.00 0.00 0.00 44 1017.9
20260503234004 75 0 0.0 4.0 0.00 0.00 0.00 44 1017.9
20260503233505 75 0 0.0 4.0 0.00 0.00 0.00 45 1018.0
20260503233005 75 0 0.0 4.0 0.00 0.00 0.00 44 1018.0
20260503232504 76 122 1.0 5.0 0.00 0.00 0.00 45 1018.1
20260503232005 76 105 1.0 5.0 0.00 0.00 0.00 45 1018.1
20260503231505 76 97 1.0 7.0 0.00 0.00 0.00 44 1018.1
20260503231004 76 0 0.0 7.0 0.00 0.00 0.00 44 1018.0
20260503230504 76 0 0.0 5.0 0.00 0.00 0.00 43 1017.8
20260503225505 77 99 1.0 6.0 0.00 0.00 0.00 41 1017.9
20260503225004 78 100 1.0 6.0 0.00 0.00 0.00 41 1018.0
20260503223505 78 187 1.0 5.0 0.00 0.00 0.00 39 1018.2
20260503223004 79 168 1.0 4.0 0.00 0.00 0.00 40 1018.5
20260503222005 79 190 1.0 6.0 0.00 0.00 0.00 38 1018.4
20260503221504 79 215 1.0 6.0 0.00 0.00 0.00 38 1018.6
20260503221004 79 0 0.0 4.0 0.00 0.00 0.00 39 1018.7
20260503220504 79 201 1.0 8.0 0.00 0.00 0.00 38 1018.6
20260503220005 79 189 2.0 8.0 0.00 0.00 0.00 37 1018.6
20260503215505 80 170 1.0 8.0 0.00 0.00 0.00 37 1018.6
20260503215004 80 170 1.0 8.0 0.00 0.00 0.00 37 1018.6
20260503214504 79 0 0.0 3.0 0.00 0.00 0.00 41 1018.7
20260503214005 79 179 1.0 4.0 0.00 0.00 0.00 39 1018.9
20260503213504 80 177 1.0 4.0 0.00 0.00 0.00 38 1019.1
20260503213004 80 186 1.0 4.0 0.00 0.00 0.00 39 1019.2
20260503212005 79 94 1.0 8.0 0.00 0.00 0.00 40 1019.1
20260503211504 78 113 1.0 4.0 0.00 0.00 0.00 40 1019.4
20260503211004 78 96 1.0 6.0 0.00 0.00 0.00 39 1019.6
20260503210505 79 107 2.0 8.0 0.00 0.00 0.00 39 1019.7
20260503210005 80 158 2.0 8.0 0.00 0.00 0.00 37 1019.7
20260503205504 80 183 2.0 8.0 0.00 0.00 0.00 39 1019.9
20260503205005 80 134 1.0 8.0 0.00 0.00 0.00 40 1019.9
20260503204504 80 109 1.0 5.0 0.00 0.00 0.00 40 1019.9
20260503204004 80 101 1.0 5.0 0.00 0.00 0.00 40 1020.0
20260503203005 79 166 2.0 5.0 0.00 0.00 0.00 41 1020.2
20260503202504 80 174 1.0 5.0 0.00 0.00 0.00 41 1020.3
20260503202004 80 122 1.0 3.0 0.00 0.00 0.00 42 1020.5
20260503201005 79 179 2.0 8.0 0.00 0.00 0.00 39 1020.5
20260503200504 79 171 2.0 5.0 0.00 0.00 0.00 40 1020.6
20260503200004 79 149 1.0 5.0 0.00 0.00 0.00 40 1020.6
20260503195505 79 163 1.0 4.0 0.00 0.00 0.00 37 1020.8
20260503195005 79 190 2.0 7.0 0.00 0.00 0.00 40 1020.9
20260503194004 79 134 1.0 7.0 0.00 0.00 0.00 45 1020.9
20260503193505 79 149 1.0 7.0 0.00 0.00 0.00 43 1020.9
20260503193004 79 185 1.0 4.0 0.00 0.00 0.00 41 1021.1
20260503192504 79 212 1.0 7.0 0.00 0.00 0.00 38 1021.1
20260503192005 79 225 1.0 7.0 0.00 0.00 0.00 39 1021.2
20260503191004 79 220 1.0 7.0 0.00 0.00 0.00 43 1021.4
20260503190504 79 210 1.0 7.0 0.00 0.00 0.00 44 1021.5
20260503190005 79 205 2.0 6.0 0.00 0.00 0.00 41 1021.6
20260503185504 79 209 1.0 7.0 0.00 0.00 0.00 43 1021.6
20260503185005 79 198 1.0 7.0 0.00 0.00 0.00 41 1021.7
20260503184504 78 160 1.0 6.0 0.00 0.00 0.00 48 1021.8
20260503184004 78 152 1.0 6.0 0.00 0.00 0.00 45 1021.9
20260503183505 78 133 2.0 7.0 0.00 0.00 0.00 43 1021.9
20260503183004 78 135 2.0 7.0 0.00 0.00 0.00 42 1022.0
20260503182505 78 133 1.0 7.0 0.00 0.00 0.00 42 1022.2
20260503182005 78 160 1.0 6.0 0.00 0.00 0.00 42 1022.4
20260503181505 78 157 1.0 6.0 0.00 0.00 0.00 44 1022.3
20260503181005 78 108 1.0 3.0 0.00 0.00 0.00 45 1022.2
20260503180504 78 109 1.0 4.0 0.00 0.00 0.00 43 1022.6
20260503180005 78 192 1.0 6.0 0.00 0.00 0.00 46 1022.7
20260503175504 78 189 1.0 6.0 0.00 0.00 0.00 45 1022.7
20260503175004 78 124 1.0 5.0 0.00 0.00 0.00 46 1022.8
20260503174504 78 148 1.0 5.0 0.00 0.00 0.00 46 1022.9
20260503174005 78 185 1.0 5.0 0.00 0.00 0.00 45 1023.0
20260503173504 78 194 1.0 6.0 0.00 0.00 0.00 47 1023.0
20260503173004 78 193 1.0 6.0 0.00 0.00 0.00 45 1023.0
20260503172504 77 196 1.0 4.0 0.00 0.00 0.00 46 1023.0
20260503172005 77 188 1.0 5.0 0.00 0.00 0.00 43 1023.1
20260503171505 77 167 1.0 5.0 0.00 0.00 0.00 43 1023.2
20260503170504 77 150 1.0 6.0 0.00 0.00 0.00 43 1023.2
20260503131004 59 0 0.0 0.0 0.00 0.00 0.00 83 1023.4
20260503110505 54 0 0.0 0.0 0.00 0.00 0.00 87 1022.4
20260503090504 54 0 0.0 0.0 0.00 0.00 0.00 88 1021.8
20260503081505 55 0 0.0 0.0 0.00 0.00 0.00 86 1021.9
20260503072504 56 0 0.0 0.0 0.00 0.00 0.00 84 1022.1
20260503072004 56 0 0.0 0.0 0.00 0.00 0.00 84 1022.2
20260503071505 56 0 0.0 0.0 0.00 0.00 0.00 84 1022.2
20260503071005 56 0 0.0 0.0 0.00 0.00 0.00 84 1022.2